Date,TemperatureHighF,TemperatureAvgF,TemperatureLowF,DewpointHighF,DewpointAvgF,DewpointLowF,HumidityHigh,HumidityAvg,HumidityLow,PressureMaxIn,PressureMinIn,WindSpeedMaxMPH,WindSpeedAvgMPH,GustSpeedMaxMPH,PrecipitationSumIn
2013-1-1,28,17,7,17,12,4,92,80,55,29.99,29.82,8,0,11,0.00
2013-1-2,34,21,7,19,13,5,94,71,43,29.92,29.83,10,5,17,0.00
2013-1-3,38,28,18,28,23,12,97,83,63,30.09,29.85,10,4,16,0.06
2013-1-4,40,27,15,25,20,12,92,74,54,30.07,29.95,14,5,22,0.00
2013-1-5,42,35,31,35,29,-19,99,80,10,29.95,29.74,13,6,19,0.04
2013-1-6,38,29,22,34,23,18,90,77,57,30.06,29.73,14,5,23,0.01
2013-1-7,52,35,22,30,24,-3,90,67,10,30.03,29.80,13,6,17,0.00
2013-1-8,52,42,30,32,28,25,82,60,40,29.85,29.75,9,6,13,0.00
2013-1-9,52,42,32,37,32,28,94,54,51,30.18,29.83,6,3,10,0.00
2013-1-10,46,38,33,45,36,29,99,91,72,30.15,29.49,10,3,16,0.76
2013-1-11,62,53,45,53,49,44,99,86,69,29.53,29.41,17,9,27,0.01
2013-1-12,57,41,25,48,34,-2,99,76,53,29.72,29.44,14,5,22,0.00
2013-1-13,25,20,13,24,16,-6,98,84,68,30.02,29.63,0,0,0,0.00
2013-1-14,33,18,11,18,12,8,96,80,47,30.17,30.02,0,0,0,0.01
2013-1-15,34,21,8,21,15,7,96,79,52,30.09,29.82,5,0,7,0.00
2013-1-16,41,29,14,26,20,13,97,69,46,29.83,29.68,14,5,21,0.02
2013-1-17,37,31,22,32,23,16,98,74,50,30.15,29.79,13,5,57,0.00
2013-1-18,54,39,28,31,24,15,77,58,30,30.14,29.75,19,9,27,0.00
2013-1-19,59,49,40,37,32,25,72,53,40,29.84,29.62,17,9,29,0.00
2013-1-20,40,22,16,29,12,-23,87,63,36,30.06,29.84,103,6,103,0.00
2013-1-21,17,14,8,13,3,-8,84,63,36,30.09,29.97,17,4,27,0.00
2013-1-22,19,11,5,5,0,-4,74,60,43,30.15,30.03,27,2,27,0.00
2013-1-23,40,23,7,20,12,2,93,65,42,30.08,29.86,17,5,26,0.00
2013-1-24,24,14,10,10,4,1,73,64,52,30.31,29.91,12,5,21,0.00
2013-1-25,43,31,24,23,16,9,76,53,34,29.92,29.80,11,4,18,0.00
2013-1-26,38,26,14,23,12,8,81,57,32,30.11,29.92,11,3,19,0.00
2013-1-27,51,35,24,51,33,-23,99,91,71,29.97,29.55,19,7,25,0.02
2013-1-28,70,60,50,63,57,50,99,93,76,29.64,29.47,17,7,25,0.00
2013-1-29,65,58,42,62,57,42,99,96,81,29.48,29.10,19,6,28,1.28
2013-1-30,42,31,23,41,28,14,99,89,69,29.56,28.99,15,3,26,0.64
2013-1-31,25,18,6,19,10,-2,90,71,56,30.04,29.55,16,8,25,0.14
2013-2-1,25,14,3,20,5,-3,91,66,44,30.12,29.82,14,5,19,0.00
2013-2-2,36,28,24,24,18,14,80,66,56,29.85,29.71,12,5,24,0.00
2013-2-3,37,28,24,22,18,-23,83,68,39,30.63,29.64,17,4,26,0.19
2013-2-4,43,30,26,31,23,14,90,74,61,29.67,26.64,15,5,22,0.00
2013-2-5,50,34,24,34,29,22,99,81,53,29.82,29.57,14,4,23,0.00
2013-2-6,52,38,23,34,30,23,99,77,43,29.91,29.70,14,4,18,0.00
2013-2-7,43,38,33,42,37,32,99,94,71,29.78,29.55,15,5,25,0.50
2013-2-8,34,32,29,33,30,27,99,92,81,30.06,29.78,14,5,20,0.00
2013-2-9,40,33,26,35,30,25,99,88,73,30.02,29.66,13,7,19,0.07
2013-2-10,57,46,35,53,41,30,99,87,37,29.68,29.17,21,10,29,0.46
2013-2-11,35,32,30,28,27,25,85,81,74,29.83,29.79,5,2,9,0.11
2013-2-12,45,33,24,30,26,22,99,77,45,29.84,29.62,5,1,10,0.00
2013-2-13,51,39,31,34,30,26,86,70,44,29.63,29.47,11,5,17,0.00
2013-2-14,51,44,36,36,33,31,83,66,50,29.68,29.45,13,7,22,0.00
2013-2-15,47,42,22,32,28,12,70,57,46,29.95,29.68,12,7,17,1.37
2013-2-16,36,24,15,18,13,10,89,64,37,29.95,29.81,11,4,17,0.00
2013-2-17,45,31,17,31,21,15,93,70,35,29.83,29.53,13,5,19,0.00
2013-2-18,56,42,27,50,36,20,99,81,62,29.55,29.15,21,10,32,0.35
2013-2-19,30,22,18,20,13,8,79,66,49,29.96,29.55,18,8,28,0.00
2013-2-20,24,18,8,15,9,3,84,69,51,30.10,29.95,11,3,15,0.00
2013-2-21,30,22,16,30,21,14,99,95,84,29.99,29.50,14,4,21,0.00
2013-2-22,32,28,23,31,26,18,99,90,78,29.70,29.43,0,0,0,0.00
2013-2-23,35,24,13,20,17,13,98,77,51,29.71,29.65,8,2,12,0.06
2013-2-24,43,30,11,26,20,10,95,69,36,29.82,29.66,8,2,12,0.00
2013-2-25,46,34,22,34,28,20,99,81,52,29.76,29.44,13,4,21,0.00
2013-2-26,48,33,31,34,32,30,99,98,82,29.45,29.13,14,8,22,0.27
2013-2-27,36,31,30,34,31,30,99,98,91,29.55,29.32,11,6,19,0.11
2013-2-28,33,31,29,31,30,28,99,95,84,29.79,29.54,9,5,16,0.00
2013-3-1,35,28,24,29,26,23,99,91,70,29.90,29.74,11,5,15,0.05
2013-3-2,34,26,16,23,17,10,94,71,44,29.96,29.87,12,5,17,0.00
2013-3-3,44,26,7,23,16,6,99,70,34,29.87,29.69,7,2,11,0.00
2013-3-4,45,35,30,33,30,23,99,81,58,29.70,29.49,13,5,19,0.01
2013-3-5,34,32,29,32,28,22,99,87,69,29.82,29.51,24,5,33,0.20
2013-3-6,36,28,16,25,22,15,96,78,60,30.05,29.81,18,6,27,0.00
2013-3-7,44,29,12,30,23,12,99,82,53,30.08,30.00,8,2,11,0.00
2013-3-8,49,37,25,35,31,25,99,81,57,30.07,29.84,14,4,19,0.00
2013-3-9,56,45,36,44,38,33,99,78,46,29.84,29.43,15,7,24,0.69
2013-3-10,54,48,40,51,47,36,99,96,52,29.44,29.27,15,4,23,0.77
2013-3-11,40,33,31,40,32,25,99,94,76,29.63,29.34,15,7,22,0.01
2013-3-12,43,32,25,32,26,22,92,77,58,29.86,29.60,16,7,32,0.00
2013-3-13,41,30,23,24,19,14,86,65,40,30.09,29.86,14,6,22,0.00
2013-3-14,58,39,22,37,27,18,88,64,35,30.03,29.75,12,4,19,0.00
2013-3-15,66,49,29,49,40,28,99,73,41,29.76,29.34,9,2,13,0.00
2013-3-16,51,40,35,47,37,32,99,91,82,29.75,29.32,14,5,24,0.00
2013-3-17,38,34,31,34,30,26,99,86,71,29.81,29.51,11,4,21,0.09
2013-3-18,67,37,30,40,31,18,99,81,41,29.68,29.37,20,6,33,0.09
2013-3-19,45,34,26,19,15,5,72,47,20,29.90,29.65,14,6,21,0.00
2013-3-20,34,30,30,24,20,19,68,66,58,29.85,29.82,11,8,19,0.00
2013-3-21,41,32,23,18,12,4,73,44,27,29.94,29.66,8,2,17,0.00
2013-3-22,41,30,17,25,20,15,97,68,41,29.87,29.81,7,1,11,0.00
2013-3-23,54,42,33,31,25,17,76,54,29,29.89,29.73,14,3,21,0.00
2013-3-24,38,30,29,33,30,29,99,99,75,29.77,29.47,13,3,21,0.00
2013-3-25,34,30,28,33,29,25,99,94,79,30.00,29.64,11,5,19,0.09
2013-3-26,44,34,27,28,25,20,88,71,42,30.15,30.00,8,4,14,0.00
2013-3-27,55,36,23,27,23,17,90,62,28,30.22,30.12,8,2,14,0.00
2013-3-28,51,39,27,35,29,24,93,69,44,30.18,30.09,9,3,15,0.00
2013-3-29,62,47,34,45,38,31,89,72,43,30.11,30.03,8,2,11,0.00
2013-3-30,56,47,34,47,42,34,99,86,58,30.03,29.73,16,6,22,0.00
2013-3-31,65,52,40,51,42,28,99,73,38,29.81,29.69,14,6,21,0.00
2013-4-1,48,38,30,31,22,12,78,54,26,30.08,29.81,16,7,24,0.00
2013-4-2,51,37,22,23,17,-5,86,49,11,30.16,30.07,9,3,14,0.00
2013-4-3,55,40,26,23,20,12,79,49,22,30.24,30.09,11,2,17,0.00
2013-4-4,65,46,28,29,22,11,83,46,12,30.09,29.88,9,1,12,0.00
2013-4-5,68,53,38,36,30,17,82,46,16,30.03,29.85,9,3,14,0.00
2013-4-6,74,62,51,52,37,25,68,43,18,29.85,29.53,25,10,34,0.02
2013-4-7,79,64,43,56,43,28,90,52,17,29.79,29.62,15,3,21,0.00
2013-4-8,78,66,55,62,58,52,97,78,52,29.70,29.49,16,5,25,0.14
2013-4-9,80,70,61,62,60,57,91,72,53,29.70,29.63,21,7,29,0.00
2013-4-10,70,55,47,65,53,46,99,96,80,29.77,29.47,19,5,24,1.50
2013-4-11,51,44,37,51,41,31,99,90,75,29.53,29.46,13,6,23,0.05
2013-4-12,43,39,37,37,34,31,85,79,75,29.81,29.49,14,7,24,0.00
2013-4-13,59,46,34,43,35,28,91,67,41,29.87,29.73,12,5,17,0.01
2013-4-14,80,63,46,55,45,32,93,58,18,29.74,29.43,22,10,31,0.28
2013-4-15,59,54,43,58,52,42,99,93,71,29.85,29.58,11,3,14,0.86
2013-4-16,52,46,41,47,42,39,99,86,68,30.00,29.80,11,4,17,0.34
2013-4-17,58,50,44,58,48,42,99,95,79,29.99,29.50,15,5,22,0.24
2013-4-18,65,52,38,64,51,33,99,94,80,29.59,29.32,25,7,35,0.92
2013-4-19,49,40,35,34,29,24,85,66,43,29.87,29.52,20,9,27,0.00
2013-4-20,59,43,27,34,28,15,99,61,21,30.16,29.87,8,2,17,0.00
2013-4-21,64,50,39,45,38,32,82,63,43,30.21,30.08,17,7,25,0.00
2013-4-22,71,59,45,48,38,26,71,49,23,30.09,29.83,16,6,22,0.00
2013-4-23,59,45,37,51,42,37,99,91,58,29.87,29.75,13,6,18,0.50
2013-4-24,54,43,34,38,33,26,99,72,35,30.03,29.83,11,6,20,0.02
2013-4-25,65,51,39,37,32,24,86,51,23,30.18,29.99,13,5,21,0.00
2013-4-26,62,54,46,48,43,33,85,69,53,30.17,30.07,17,6,29,0.00
2013-4-27,53,50,44,52,49,44,99,98,85,30.11,29.79,7,2,10,0.21
2013-4-28,64,55,51,56,52,50,99,91,69,29.79,29.72,9,4,12,0.00
2013-4-29,81,66,46,64,56,46,99,74,42,29.73,29.59,17,8,27,0.00
2013-4-30,88,75,63,63,56,36,94,56,18,29.81,29.60,16,8,24,0.00
2013-5-1,86,74,60,61,53,40,79,50,21,29.98,29.81,13,5,20,0.00
2013-5-2,69,51,39,61,47,39,99,86,73,30.07,29.96,16,7,23,0.31
2013-5-3,52,40,38,44,40,38,99,99,99,29.99,29.60,11,6,19,2.08
2013-5-4,51,46,40,49,45,40,99,97,88,29.87,29.60,9,2,11,0.06
2013-5-5,73,56,45,61,54,44,99,92,57,29.85,29.77,13,2,17,0.09
2013-5-6,80,64,53,58,53,44,99,71,31,29.86,29.80,14,3,19,0.01
2013-5-7,85,70,55,59,49,31,91,54,16,29.91,29.85,8,1,14,0.00
2013-5-8,84,68,54,60,52,39,99,63,23,29.91,29.84,13,2,24,0.01
2013-5-9,73,63,56,67,62,56,99,96,73,29.84,29.69,16,3,24,0.53
2013-5-10,60,56,52,60,55,51,99,96,87,29.85,29.68,10,4,15,0.01
2013-5-11,63,54,45,56,40,24,99,65,29,30.01,29.81,20,6,28,0.01
2013-5-12,63,50,39,35,29,17,80,48,21,30.08,29.99,12,4,17,0.00
2013-5-13,76,60,39,44,34,16,84,42,13,30.05,29.85,11,4,14,0.01
2013-5-14,92,75,57,61,52,43,78,48,22,29.85,29.64,14,6,26,0.00
2013-5-15,91,79,70,67,58,50,84,51,36,29.78,29.68,14,5,25,0.00
2013-5-16,86,73,63,69,65,59,99,78,46,29.82,29.73,10,3,14,0.00
2013-5-17,81,68,55,67,62,54,99,84,54,29.85,29.79,11,2,14,0.00
2013-5-18,84,72,61,70,65,61,99,81,50,29.88,29.75,11,4,15,0.00
2013-5-19,90,78,68,79,69,-33,99,77,52,29.77,29.55,34,6,34,0.14
2013-5-20,83,72,62,72,65,57,99,80,41,29.77,29.56,21,8,36,0.87
2013-5-21,81,70,63,67,64,60,99,82,55,29.63,29.56,13,5,20,0.00
2013-5-22,75,66,60,65,58,54,99,79,49,29.73,29.52,12,4,23,0.00
2013-5-23,74,60,52,60,55,50,99,84,49,30.11,29.71,14,4,21,0.00
2013-5-24,71,58,44,52,46,38,99,70,31,30.27,30.11,7,2,14,0.00
2013-5-25,68,56,50,57,52,46,99,87,65,30.22,30.01,14,3,20,0.45
2013-5-26,78,63,52,68,59,50,99,86,66,30.05,29.85,10,4,17,0.00
2013-5-27,76,67,62,70,65,61,99,95,74,29.86,29.54,11,3,19,1.84
2013-5-28,80,72,61,74,69,61,99,91,78,29.84,29.59,24,6,36,0.48
2013-5-29,87,75,61,72,66,61,99,77,51,29.82,29.67,15,6,22,0.02
2013-5-30,84,72,62,75,67,62,99,86,59,29.75,29.62,20,8,30,1.28
2013-5-31,77,66,62,75,66,61,99,99,89,29.77,29.55,17,3,24,0.92
2013-6-1,78,68,61,72,64,57,99,88,52,29.75,29.54,14,5,23,0.09
2013-6-2,67,61,56,61,56,50,99,86,71,29.90,29.72,11,4,16,0.00
2013-6-3,76,62,51,59,53,47,99,74,40,29.96,29.88,6,1,9,0.00
2013-6-4,78,64,50,60,56,49,99,77,47,29.97,29.87,9,2,15,0.00
2013-6-5,81,68,53,66,61,53,99,80,48,29.90,29.76,6,1,8,0.00
2013-6-6,81,69,60,67,60,50,99,77,36,29.79,29.72,9,3,14,0.00
2013-6-7,84,65,55,62,58,54,99,79,43,29.81,29.76,9,2,14,0.00
2013-6-8,82,68,52,61,57,52,99,71,40,29.83,29.77,9,2,13,0.00
2013-6-9,74,67,62,68,62,58,99,87,68,29.81,29.65,9,4,14,0.22
2013-6-10,81,69,60,67,63,60,99,85,55,29.79,29.62,10,2,14,0.01
2013-6-11,92,76,60,76,69,25,99,80,50,29.81,29.71,11,3,17,0.05
2013-6-12,94,82,68,77,73,67,99,74,46,29.80,29.58,18,5,30,0.00
2013-6-13,92,76,62,70,62,9,99,67,25,29.92,29.65,14,4,22,0.00
2013-6-14,86,70,59,71,63,56,99,79,38,30.01,29.80,10,2,14,0.02
2013-6-15,90,75,66,76,69,63,99,84,59,29.98,29.78,11,4,17,1.22
2013-6-16,88,75,66,76,71,66,99,87,62,29.90,29.79,8,2,14,0.04
2013-6-17,89,77,65,79,71,-60,99,84,55,29.86,29.79,8,1,11,0.00
2013-6-18,88,76,66,74,67,61,99,77,45,29.90,29.78,8,3,13,0.02
2013-6-19,92,75,61,68,62,54,99,69,30,29.97,29.89,4,0,9,0.00
2013-6-20,91,78,61,72,67,61,99,74,41,29.99,29.92,10,3,17,0.00
2013-6-21,93,83,71,78,74,70,99,77,56,29.97,29.85,11,4,16,0.04
2013-6-22,94,79,71,80,74,65,99,85,54,29.96,29.84,13,5,19,0.04
2013-6-23,90,74,68,77,70,64,99,87,64,29.94,29.75,13,4,20,0.39
2013-6-24,93,80,68,79,73,68,99,81,57,29.93,29.75,12,4,17,0.00
2013-6-25,94,82,73,79,75,72,99,80,57,29.82,29.69,12,4,24,0.01
2013-6-26,91,81,74,80,76,67,99,87,66,29.72,29.62,10,3,17,0.00
2013-6-27,92,81,72,79,72,64,99,77,44,29.80,29.69,8,3,16,0.00
2013-6-28,87,79,70,72,62,49,95,62,28,29.75,29.61,15,5,24,0.00
2013-6-29,79,70,62,71,64,59,99,83,61,29.67,29.57,14,5,21,0.20
2013-6-30,86,71,62,69,64,61,99,81,48,29.86,29.67,8,2,13,0.01
2013-7-1,86,68,59,66,61,52,99,80,49,29.99,29.79,7,1,10,0.00
2013-7-2,86,70,58,64,58,52,99,69,36,29.95,29.89,6,0,16,0.00
2013-7-3,87,71,58,66,62,58,99,77,41,29.97,29.90,6,1,8,0.00
2013-7-4,90,77,64,66,62,49,99,65,27,29.97,29.91,8,2,12,0.00
2013-7-5,89,76,61,70,64,53,99,71,33,29.97,29.90,8,3,12,0.00
2013-7-6,91,76,62,74,68,62,99,79,41,29.94,29.87,7,3,11,0.00
2013-7-7,94,81,69,76,70,65,92,71,44,29.94,29.88,9,4,15,0.00
2013-7-8,91,81,73,79,74,69,99,77,60,29.97,29.89,8,3,14,0.02
2013-7-9,95,85,76,79,76,72,96,76,51,29.93,29.81,11,4,20,0.01
2013-7-10,90,80,64,79,72,63,99,79,50,29.93,29.75,11,4,17,0.45
2013-7-11,93,75,60,70,63,55,99,72,30,30.01,29.92,4,0,7,0.00
2013-7-12,91,72,56,65,58,47,99,70,25,30.03,29.96,8,1,12,0.01
2013-7-13,92,74,55,68,62,55,99,70,33,30.01,29.94,6,1,9,0.00
2013-7-14,94,77,62,73,68,61,99,76,41,30.07,29.97,9,2,14,0.00
2013-7-15,95,79,67,82,74,67,99,87,53,30.15,30.05,11,1,19,0.31
2013-7-16,94,82,70,80,75,70,99,82,49,30.20,30.11,6,2,11,0.00
2013-7-17,100,84,71,82,76,71,99,79,41,30.22,30.11,6,1,9,0.00
2013-7-18,97,86,74,80,76,69,99,73,41,30.12,29.91,8,2,11,0.00
2013-7-19,98,86,77,76,73,64,86,66,34,29.92,29.77,9,4,15,0.00
2013-7-20,96,83,69,76,72,67,99,73,43,29.84,29.75,7,1,11,0.00
2013-7-21,84,73,66,77,72,66,99,95,73,29.83,29.73,8,1,11,0.30
2013-7-22,93,79,68,80,73,68,99,86,56,29.77,29.68,7,1,11,0.01
2013-7-23,90,77,64,75,68,63,99,76,47,29.85,29.67,9,2,14,0.00
2013-7-24,89,71,58,65,60,53,99,74,33,29.96,29.83,6,0,9,0.00
2013-7-25,88,71,54,68,60,54,99,74,36,30.02,29.94,6,1,8,0.00
2013-7-26,82,70,62,74,67,61,99,89,73,29.97,29.82,10,3,18,1.25
2013-7-27,73,64,52,61,55,48,99,77,43,29.91,29.85,12,4,22,0.00
2013-7-28,82,65,49,58,53,46,99,71,31,29.96,29.86,10,2,15,0.00
2013-7-29,54,53,52,54,53,52,99,99,99,29.97,29.95,0,0,0,0.00
2013-7-30,79,70,64,74,69,64,99,97,84,30.01,29.89,7,2,12,1.43
2013-7-31,78,71,66,72,70,66,99,95,78,29.95,29.89,6,2,9,0.00
2013-8-1,94,75,65,73,66,58,99,79,32,29.97,29.86,7,2,9,0.00
2013-8-2,85,74,66,77,70,64,99,88,71,29.87,29.81,8,3,13,0.00
2013-8-3,90,75,61,74,66,59,99,78,41,30.03,29.82,7,1,11,0.00
2013-8-4,85,70,57,68,63,57,99,80,47,30.08,29.97,4,0,7,0.00
2013-8-5,81,71,61,73,68,60,99,92,73,30.00,29.74,9,3,14,0.00
2013-8-6,90,77,66,81,74,66,99,89,65,29.80,29.73,7,2,11,0.00
2013-8-7,90,77,71,81,75,71,99,95,70,29.84,29.69,8,2,14,0.00
2013-8-8,90,74,64,77,70,63,99,90,62,29.89,29.81,5,1,8,0.01
2013-8-9,89,74,64,73,68,62,99,83,49,29.97,29.86,3,0,6,0.00
2013-8-10,90,74,59,71,64,57,99,76,39,30.07,29.97,8,1,11,0.00
2013-8-11,89,72,56,71,64,56,99,78,43,30.04,29.95,6,1,9,0.00
2013-8-12,85,74,64,78,70,63,99,90,75,29.97,29.81,6,2,10,0.06
2013-8-13,87,70,55,72,63,55,99,81,43,30.05,29.86,5,1,11,0.00
2013-8-14,83,63,47,60,53,47,99,76,32,30.10,30.03,3,0,7,0.01
2013-8-15,57,53,52,56,53,52,99,99,99,30.05,30.01,2,0,3,0.00
2013-8-16,87,68,55,66,60,55,99,78,40,30.07,30.00,6,0,9,0.00
2013-8-17,88,68,53,68,58,52,99,76,32,30.09,30.03,6,1,10,0.00
2013-8-18,90,71,54,69,62,54,99,78,41,30.08,30.00,4,0,7,0.00
2013-8-19,89,74,60,78,67,60,99,81,46,30.03,29.93,8,1,12,0.00
2013-8-20,91,78,63,74,69,63,99,76,45,30.00,29.94,8,3,12,0.00
2013-8-21,85,75,66,72,67,59,99,79,45,30.06,29.92,5,1,10,0.08
2013-8-22,94,80,70,79,74,69,99,84,54,29.97,29.90,9,1,14,0.00
2013-8-23,95,78,66,78,71,66,99,82,47,30.01,29.94,6,1,10,0.00
2013-8-24,92,77,64,76,71,63,99,83,52,30.09,29.99,7,2,11,0.00
2013-8-25,93,80,70,73,70,67,98,74,45,30.12,30.05,7,3,11,0.00
2013-8-26,97,82,71,78,74,68,99,77,42,30.06,29.92,8,2,14,0.00
2013-8-27,98,84,74,76,69,56,99,66,27,29.94,29.86,9,3,15,0.00
2013-8-28,100,85,73,74,69,64,86,63,33,29.90,29.84,9,3,15,0.00
2013-8-29,104,85,69,81,74,67,99,73,33,29.93,29.84,6,1,9,0.00
2013-8-30,102,87,72,79,73,65,99,69,31,29.85,29.70,8,2,13,0.00
2013-8-31,100,86,74,79,75,71,99,71,46,29.71,29.64,9,3,15,0.00
2013-9-1,94,79,68,79,70,62,99,78,39,29.77,29.66,9,2,13,0.00
2013-9-2,90,72,56,69,62,54,99,74,30,29.88,29.76,8,2,12,0.00
2013-9-3,93,69,53,68,58,47,99,75,24,29.97,29.87,5,1,9,0.00
2013-9-4,95,72,54,70,59,48,99,73,21,30.03,29.93,5,1,8,0.00
2013-9-5,96,76,60,69,62,49,99,68,23,30.07,30.00,6,1,11,0.00
2013-9-6,91,75,59,71,64,51,99,73,26,30.05,29.90,8,2,12,0.00
2013-9-7,98,80,65,74,67,62,99,68,31,29.91,29.77,9,3,13,0.00
2013-9-8,92,79,70,77,73,68,99,85,57,29.88,29.74,10,3,17,0.84
2013-9-9,99,84,71,76,72,65,99,72,35,29.84,29.75,27,3,27,0.00
2013-9-10,97,84,74,73,69,61,82,62,32,29.95,29.83,8,3,16,0.00
2013-9-11,98,83,72,72,67,58,85,61,27,29.99,29.91,7,2,12,0.00
2013-9-12,86,73,61,73,64,41,99,76,25,29.98,29.89,9,3,16,1.20
2013-9-13,84,64,47,62,51,32,99,71,16,30.04,29.97,4,1,8,0.00
2013-9-14,79,60,44,57,49,41,99,73,28,30.03,29.87,7,1,11,0.00
2013-9-15,81,66,58,70,59,46,99,80,49,30.02,29.83,11,4,17,0.09
2013-9-16,78,62,53,64,58,53,99,88,58,30.17,30.01,3,0,10,0.01
2013-9-17,68,60,51,67,59,51,99,97,85,30.12,29.92,6,2,10,0.00
2013-9-18,88,74,60,76,69,60,99,87,64,29.93,29.78,11,4,17,0.00
2013-9-19,92,79,68,76,73,68,99,82,54,29.83,29.70,13,5,26,0.50
2013-9-20,73,66,53,68,62,52,99,89,60,29.80,29.73,9,3,14,0.11
2013-9-21,98,67,50,74,57,48,99,76,32,30.01,29.76,7,2,13,0.00
2013-9-22,84,60,45,61,51,44,99,79,34,30.01,29.92,6,1,11,0.01
2013-9-23,78,60,46,59,52,46,99,79,43,30.01,29.93,10,2,17,0.01
2013-9-24,82,64,48,65,58,48,99,83,54,29.95,29.81,12,2,17,0.00
2013-9-25,90,70,56,69,63,56,99,82,43,29.89,29.81,4,0,8,0.00
2013-9-26,87,70,56,71,62,56,99,82,44,30.01,29.88,8,2,13,0.00
2013-9-27,86,69,56,70,60,56,99,77,40,30.08,30.00,11,3,17,0.00
2013-9-28,81,68,58,74,64,56,99,88,65,30.03,29.90,11,4,20,0.27
2013-9-29,84,62,48,62,52,37,99,77,22,30.07,29.97,7,1,11,0.01
2013-9-30,82,62,44,64,56,43,99,83,49,29.97,29.87,9,2,13,0.01
2013-10-1,87,71,62,73,68,61,99,90,56,29.99,29.88,7,3,13,0.00
2013-10-2,91,74,61,76,70,61,99,87,53,30.04,29.94,6,2,11,0.00
2013-10-3,86,71,63,78,70,63,99,94,68,29.95,29.79,16,3,23,0.53
2013-10-4,90,76,64,76,71,64,99,84,50,29.92,29.86,9,4,16,0.00
2013-10-5,75,66,51,74,66,51,99,98,85,29.92,29.81,9,4,17,0.01
2013-10-6,55,49,43,51,46,41,99,92,71,29.84,29.75,11,4,17,0.05
2013-10-7,73,58,46,55,50,45,99,80,37,30.09,29.82,9,3,15,0.00
2013-10-8,80,65,54,56,51,45,88,64,33,30.15,30.07,8,3,13,0.00
2013-10-9,58,53,46,51,50,46,99,87,78,30.11,30.08,4,1,8,0.00
2013-10-10,81,63,46,65,56,46,99,82,42,30.11,29.97,7,1,10,0.00
2013-10-11,81,66,53,66,58,53,99,79,42,29.98,29.87,13,4,20,0.00
2013-10-12,76,65,54,66,53,37,99,70,25,30.20,29.89,9,3,14,0.00
2013-10-13,80,58,41,45,37,17,96,54,11,30.38,30.19,6,1,11,0.00
2013-10-14,71,54,37,55,43,37,99,72,32,30.33,30.01,8,2,14,0.01
2013-10-15,71,60,50,68,56,44,99,88,58,30.01,29.83,9,4,16,0.22
2013-10-16,55,50,44,48,45,43,99,84,69,29.98,29.91,9,3,14,0.00
2013-10-17,67,53,45,53,46,39,99,82,38,29.95,29.85,10,3,19,0.01
2013-10-18,58,48,41,47,42,37,99,85,50,30.01,29.85,11,4,17,0.00
2013-10-19,60,46,36,45,39,33,99,80,36,29.95,29.85,11,4,21,0.00
2013-10-20,75,57,45,48,42,32,89,61,24,29.86,29.76,14,5,25,0.00
2013-10-21,80,59,34,56,49,32,98,73,33,30.09,29.91,8,2,13,0.25
2013-10-22,55,42,35,50,41,34,99,95,81,29.92,29.69,15,4,24,0.02
2013-10-23,51,40,33,39,35,27,99,83,45,30.01,29.88,10,4,17,0.00
2013-10-24,44,36,25,39,30,24,99,78,53,30.25,29.99,13,4,21,0.07
2013-10-25,59,42,29,37,29,21,98,65,25,30.33,30.03,10,3,17,0.00
2013-10-26,62,49,38,42,31,20,72,53,24,30.04,29.89,14,5,24,0.00
2013-10-27,63,45,29,37,30,25,99,62,24,30.03,29.91,9,2,14,0.00
2013-10-28,73,50,29,46,34,21,99,64,17,30.15,29.92,7,1,11,0.00
2013-10-29,63,48,40,63,46,35,99,92,70,30.15,29.96,7,1,11,0.04
2013-10-30,68,60,54,65,60,54,99,99,99,29.96,29.66,11,2,20,1.29
2013-10-31,71,56,45,65,56,45,99,99,99,29.66,29.27,15,5,21,1.58
2013-11-1,58,49,43,49,44,42,99,85,60,29.72,29.44,11,4,21,0.01
2013-11-2,56,46,35,45,39,33,99,79,47,30.05,29.71,13,4,22,0.00
2013-11-3,60,45,29,41,35,28,99,71,34,30.14,30.00,11,3,17,0.00
2013-11-4,60,51,45,48,44,38,82,74,61,30.07,29.94,12,5,18,0.00
2013-11-5,59,54,52,56,53,48,99,97,82,30.10,29.81,14,5,20,0.51
2013-11-6,58,46,35,58,45,33,99,96,84,30.12,29.73,12,6,24,0.47
2013-11-7,56,40,29,42,34,28,99,80,42,30.20,30.12,10,2,15,0.00
2013-11-8,56,44,27,38,32,25,99,67,33,30.20,29.86,17,5,23,0.00
2013-11-9,69,55,47,44,38,23,82,54,19,30.16,29.85,14,6,25,0.00
2013-11-10,61,45,35,36,32,26,85,63,27,30.31,30.13,8,2,12,0.00
2013-11-11,61,44,27,49,36,24,99,75,51,30.42,30.03,14,6,21,0.00
2013-11-12,39,26,16,24,18,13,96,74,45,30.67,30.42,10,3,15,0.00
2013-11-13,49,33,15,20,12,-6,99,49,11,30.54,30.09,11,5,17,0.00
2013-11-14,59,44,35,21,15,0,51,33,10,30.09,29.87,12,6,21,0.00
2013-11-15,60,48,42,46,34,21,97,61,37,29.90,29.75,11,5,17,0.00
2013-11-16,64,57,47,61,55,46,99,95,80,29.75,29.44,19,9,29,0.09
2013-11-17,75,60,43,67,54,40,99,82,47,29.84,29.19,26,8,40,1.22
2013-11-18,54,43,30,43,34,26,99,73,37,30.18,29.84,14,4,23,0.00
2013-11-19,51,37,26,33,29,25,99,76,41,30.22,30.06,10,3,14,0.00
2013-11-20,41,38,34,41,35,30,99,92,79,30.07,29.83,14,6,21,0.33
2013-11-21,50,47,41,50,46,41,99,97,86,30.13,29.91,8,2,14,0.40
2013-11-22,41,33,25,41,33,24,99,98,91,30.41,30.12,14,6,20,0.06
2013-11-23,27,22,13,24,16,11,99,80,58,30.60,30.39,17,7,25,0.00
2013-11-24,32,20,8,17,11,4,99,69,33,30.60,30.23,10,2,14,0.00
2013-11-25,35,30,24,22,16,13,75,56,44,30.23,30.01,11,4,19,0.00
2013-11-26,38,28,19,30,21,10,94,75,50,30.13,29.94,17,6,26,0.00
2013-11-27,31,20,13,12,9,5,83,64,35,30.22,30.06,10,4,17,0.00
2013-11-28,44,30,17,23,18,11,83,64,42,30.36,30.01,11,4,17,0.00
2013-11-29,45,29,15,25,20,13,99,74,40,30.44,30.26,10,2,14,0.00
2013-11-30,27,22,13,24,16,10,99,80,59,30.64,30.43,15,7,22,0.00
2013-12-1,41,23,9,35,14,4,99,72,33,30.64,29.85,7,2,10,0.00
2013-12-2,51,40,33,44,37,31,99,91,71,29.86,29.58,7,2,10,0.00
2013-12-3,57,46,34,55,45,34,99,99,92,29.59,29.50,12,3,17,0.00
2013-12-4,64,48,30,58,47,27,99,95,72,29.80,29.41,14,5,22,0.00
2013-12-5,29,23,19,27,16,11,92,74,63,30.22,29.79,13,6,22,0.00
2013-12-6,19,16,10,13,7,2,80,68,51,30.50,30.19,12,7,20,0.00
2013-12-7,29,14,5,9,4,-2,89,67,28,30.64,30.37,8,3,13,0.00
2013-12-8,25,21,16,24,18,8,99,88,69,30.36,29.90,8,3,15,0.00
2013-12-9,24,18,11,24,13,6,99,81,68,30.22,29.97,11,4,20,0.00
2013-12-10,34,19,8,16,9,2,91,66,36,30.19,30.01,14,4,23,0.00
2013-12-11,27,18,1,21,8,-8,90,67,27,30.53,30.12,17,5,25,0.00
2013-12-12,41,22,0,19,9,-2,92,59,32,30.50,30.10,11,4,20,0.00
2013-12-13,38,32,24,32,25,18,99,79,46,30.10,29.84,10,2,14,0.07
2013-12-14,32,28,21,32,28,21,99,99,99,30.03,29.77,0,0,0,0.00
2013-12-15,36,22,14,27,20,14,99,94,64,30.05,29.93,3,0,5,0.00
2013-12-16,30,22,17,27,22,17,99,97,85,30.04,29.89,5,1,9,0.00
2013-12-17,42,30,22,34,25,16,99,83,58,30.15,30.00,11,4,16,0.00
2013-12-18,48,37,22,36,24,14,77,60,38,30.13,29.78,16,8,24,0.00
2013-12-19,56,49,43,50,44,36,98,84,70,29.80,29.66,15,7,21,0.00
2013-12-20,52,40,29,51,39,28,99,99,98,29.79,29.61,10,3,14,0.09
2013-12-21,31,29,28,31,29,28,99,99,99,29.78,29.51,0,0,0,0.00
2013-12-22,32,28,18,32,28,18,99,99,96,30.18,29.54,0,0,0,0.00
2013-12-23,18,15,12,18,14,10,99,96,86,30.42,30.17,0,0,0,0.00
2013-12-29,15,12,8,11,5,-1,85,73,62,30.18,30.11,13,6,17,0.00
2013-12-30,25,13,2,13,2,-7,83,61,25,30.23,30.04,8,2,11,0.00
2013-12-31,40,26,15,25,19,12,99,75,49,30.26,30.01,10,3,14,0.00
2014-1-1,28,21,15,24,20,14,99,95,82,30.06,29.99,14,3,21,0.00
2014-1-2,22,12,-1,14,8,-5,99,86,66,30.36,30.03,14,6,21,0.00